Regional Weather Roundup
Issued by NWS

Home | Current Version | Previous Version | Graphics & Text | Print | Product List | Glossary On
Versions: 1 2 3 4 5 6 7 8 9 10 11 12 13 14 15 16 17 18 19 20 21 22 23 24 25 26 27 28 29 30 31 32 33 34 35 36 37 38 39 40 41 42 43 44 45 46 47 48 49 50
000
ASUS43 KDMX 212006
RWRIA

WEATHER ROUNDUP FOR IOWA
NATIONAL WEATHER SERVICE DES MOINES IA
200 PM CST SUN JAN 21 2018

NOTE: "FAIR" INDICATES FEW OR NO CLOUDS BELOW 12,000 FEET WITH NO
SIGNIFICANT WEATHER AND/OR OBSTRUCTIONS TO VISIBILITY.

* - THESE STATIONS ARE NOT NWS STATIONS...THUS NOT UNDER NWS
QUALITY CONTROL.  THEY ALSO DO NOT REPORT WEATHER SUCH
AS PRECIPITATION OR FOG.

IAZ001>003-012>014-020>022-031>034-043>046-212100-
   NORTHWEST IOWA

CITY           SKY/WX    TMP DP  RH WIND       PRES   REMARKS
CARROLL *      LGT RAIN  37  37 100 N10       29.78R VSB 1/4 WCI  30
CHEROKEE *     DRIZZLE   37  35  94 N10       29.83F WCI  30
DENISON *      LGT RAIN  37  37 100 NE10G20   29.77F WCI  30
LE MARS *      CLOUDY    41  30  65 NE14      29.83F
ORANGE CITY *  PTSUNNY   41  34  75 NE9G16    29.83F
SHELDON *      CLOUDY    39  30  70 NE16      29.83F WCI  30
SIOUX CITY     CLOUDY    40  32  73 NE18      29.79F WCI  31
SPENCER        CLOUDY    39  31  72 N16       29.85F WCI  30
STORM LAKE *   MIX PCPN  36  34  93 NE15      29.81F VSB 1   WCI  26
$$

IAZ055>058-069>071-079>083-090>094-212100-
   SOUTHWEST IOWA

CITY           SKY/WX    TMP DP  RH WIND       PRES   REMARKS
ATLANTIC *     CLOUDY    41  39  93 NE8       29.73S FOG
AUDUBON *      LGT RAIN  39  37  93 NE9       29.76R WCI  33
CLARINDA *     CLOUDY    46  46 100 N7          N/A  FOG
COUNCIL BLFS * LGT RAIN  39  39 100 NE12      29.71F VSB 3/4 WCI  32
CRESTON *      FOG       43  41  93 E9        29.73F VSB<1/4
HARLAN  *      LGT RAIN  39  39 100 NE10      29.76F VSB 1   WCI  32
LAMONI         CLOUDY    53  49  86 SE6       29.71F
RED OAK *      FOG       43  43 100 NE8       29.71F VSB<1/4
SHENANDOAH *   FOG       45  45 100 NE8       29.71S VSB 1/2
$$

IAZ047>049-059>061-072>074-084-212100-
   CENTRAL IOWA

CITY           SKY/WX    TMP DP  RH WIND       PRES   REMARKS
AMES           CLOUDY    40  40 100 NE7       29.77F FOG
ANKENY *       CLOUDY    41  39  93 NE9       29.77F VSB 3/4
BOONE *        FOG       39  39 100 E12       29.75F VSB 1/2 WCI  32
CHARITON *     CLOUDY    45  45 100 E8        29.74F FOG
DES MOINES     DRZL/FOG  42  40  92 E8        29.75F VSB 1
GRINNELL*      FOG       40  39  97 E13       29.78F VSB 1/2 WCI  32
KNOXVILLE *    FOG       41  41 100 E8        29.74F VSB 1/2
MARSHALLTOWN   CLOUDY    40  40 100 E8        29.78F FOG     WCI  34
NEWTON *       FOG       41  41 100 NE13      29.77F VSB 1/2
PELLA *        CLOUDY    41  41  99 E6        29.78F FOG
PERRY *        FOG       40  40  98 E9        29.74F VSB 1   WCI  35
$$

IAZ004>006-015-016-023>025-035-036-212100-
   NORTH CENTRAL IOWA

CITY           SKY/WX    TMP DP  RH WIND       PRES   REMARKS
ALGONA *       CLOUDY    36 N/A N/A N12       29.84S HAZE    WCI  27
CLARION *      CLOUDY    36  36 100 NE12G17   29.81F FOG     WCI  27
ESTHERVILLE    CLOUDY    36  32  85 N14       29.87S WCI  27
FORT DODGE *   MIX PCPN  35  34  96 N10       29.80F FOG     WCI  27
MASON CITY     CLOUDY    37  33  85 NE9       29.84F FOG     WCI  30
FOREST CITY *  CLOUDY    37  34  87 NE7       29.84F WCI  32
WEBSTER CITY * MIX PCPN  39  39 100 NE10      29.76F VSB 3/4 WCI  32
IOWA FALLS *   DRZL/FOG  37  37  97 NE7       29.80F VSB 1/2 WCI  32
$$

IAZ007>011-017>019-026>030-037>042-050>054-066-212100-
   NORTHEAST IOWA

CITY           SKY/WX    TMP DP  RH WIND       PRES   REMARKS
CEDAR RAPIDS   CLOUDY    42  40  92 E10       29.79F FOG
CHARLES CITY * CLOUDY    37  37 100 NE10      29.84F FOG     WCI  30
CLINTON *      FOG       41  40  96 E9        29.85F VSB 1
DECORAH *      CLOUDY    34  34 100 E3        29.85F FOG
DUBUQUE        CLOUDY    38  35  89 NE5       29.84F FOG     WCI  34
MONTICELLO *   CLOUDY    41  39  93 E7        29.83F FOG
OELWEIN *      FOG       37  37 100 NE10      29.83F VSB 1   WCI  30
WATERLOO       FOG       38  37  97 E7        29.82F VSB 1   WCI  33
$$

IAZ064-065-067-068-078-212100-
   EAST CENTRAL IOWA

CITY           SKY/WX    TMP DP  RH WIND       PRES   REMARKS
DAVENPORT      LGT RAIN  43  41  93 E6        29.85F VSB 1/4
IOWA CITY      LGT RAIN  43  40  89 E5        29.82F FOG
MT. PLEASANT * CLOUDY    46  45  93 E3        29.79F FOG
MUSCATINE *    MIX PCPN  43  43 100 NE6       29.82F
QUAD CITIES    FOG       45  43  93 E8        29.82F VSB 1
$$

IAZ062-063-075>077-085>089-095>099-212100-
   SOUTHEAST IOWA

CITY           SKY/WX    TMP DP  RH WIND       PRES   REMARKS
BURLINGTON     CLOUDY    52  47  83 S6        29.79F
FAIRFIELD *    CLOUDY    46  43  87 E7        29.77F
FORT MADISON * CLOUDY    52  50  93 SE7       29.79F
KEOKUK *       CLOUDY    57  52  82 S6G12     29.78F
OSKALOOSA *    CLOUDY    42  41  97 E8        29.77F FOG
OTTUMWA        CLOUDY    46  42  86 E8        29.76F
WASHINGTON *   CLOUDY    43  43 100 E8        29.80F FOG
$$

ABBREVIATIONS USED IN REMARKS
   TC - TEMPERATURES IN CELSIUS
  WCI - WIND CHILL INDEX
   HX - HEAT INDEX
  VSB - VISIBILITY
$$




USA.gov is the U.S. government's official web portal to all federal, state and local government web resources and services.